Wind_Speed
11 11 11 11 12 13 13 14 14 14 15 15 15 15 15 15 14 13 13 13 14 13 13 14 14 14 14 15 15 15 16 16 16 16 15 15 16 17
12 12 11 12 13 14 14 14 14 14 15 15 15 14 14 14 14 14 14 14 14 14 14 15 15 15 14 15 16 16 16 16 16 17 17 17 17 17
12 12 13 13 14 14 15 15 15 15 16 15 15 14 14 14 14 14 14 14 14 14 14 15 15 15 15 15 15 15 16 16 17 17 17 18 18 19
14 14 14 15 15 15 16 16 16 16 17 16 15 15 15 14 14 15 15 15 15 14 15 15 16 16 15 15 15 16 16 16 16 16 17 18 19 19
15 15 16 16 17 17 17 17 17 18 18 17 16 16 16 15 15 15 15 15 15 15 15 16 16 16 16 16 15 15 16 16 16 17 18 18 19 19
17 17 17 18 18 18 19 19 19 19 19 18 18 17 17 16 16 16 16 16 16 16 16 16 16 16 16 16 16 16 16 16 17 18 18 18 18 18
18 18 19 19 20 19 20 20 20 20 20 19 18 18 18 17 18 17 18 17 18 18 18 17 17 17 17 17 17 17 17 18 18 18 18 18 17 17
19 20 20 20 21 21 21 21 20 20 20 20 19 19 18 18 19 19 19 19 19 19 19 18 18 18 18 18 18 18 17 17 18 18 18 18 17 17
20 21 21 21 21 21 21 20 20 20 20 20 20 20 19 19 20 20 20 21 21 20 20 19 19 19 18 18 18 19 19 18 19 19 18 18 18 18
21 22 22 22 21 21 21 21 21 21 21 21 21 21 21 21 21 20 20 21 21 20 20 20 19 19 19 19 19 19 19 19 19 19 19 19 20 20
21 22 22 22 21 21 22 22 22 22 22 22 21 21 20 20 20 20 20 20 20 20 20 20 20 20 20 20 20 20 20 20 20 20 20 20 20 21
22 22 22 22 22 22 22 22 22 22 22 22 21 21 21 21 21 21 21 20 20 21 21 21 21 20 20 20 21 20 20 20 20 20 20 20 20 20
22 22 22 23 23 23 23 22 22 22 22 22 22 22 23 22 22 22 22 21 21 21 21 21 21 21 21 20 20 20 20 20 21 21 21 21 20 20
22 22 22 23 24 23 23 23 23 23 23 23 23 23 23 23 22 22 22 22 22 21 21 22 22 21 21 20 20 20 20 20 20 21 21 21 21 21
23 23 23 23 24 24 24 24 23 23 23 23 23 24 23 23 23 22 22 22 22 22 22 22 22 22 21 21 20 20 21 21 21 21 22 21 22 22
24 25 25 24 25 25 25 24 24 25 25 24 24 24 24 24 24 23 22 22 22 22 22 22 22 21 21 21 21 21 21 21 21 21 22 22 22 22
26 26 26 25 25 26 26 26 25 26 26 26 25 25 25 25 25 24 23 23 23 23 23 23 22 22 22 22 22 22 22 22 22 22 23 23 23 23
27 27 26 26 26 27 26 26 26 26 26 26 26 25 26 26 26 25 24 23 24 24 24 24 23 23 23 23 23 23 23 23 23 23 23 23 23 23
27 27 27 27 27 27 27 26 26 26 26 26 26 26 26 26 26 26 25 25 24 24 25 25 25 25 24 24 24 25 25 25 25 25 24 24 24 24
28 27 27 27 27 27 27 26 26 26 26 26 26 26 26 26 25 25 25 25 25 25 25 25 25 25 25 26 25 25 26 26 26 26 26 26 26 26
28 28 27 27 27 26 26 26 26 26 26 26 26 26 26 26 25 25 25 25 26 26 26 26 26 26 26 26 27 27 27 28 28 27 28 28 28 27
29 28 28 27 26 26 26 26 26 26 26 27 26 26 26 26 26 26 26 26 26 26 27 27 27 27 27 27 28 28 28 29 28 28 29 29 29 29
28 28 28 27 26 27 27 27 26 26 26 26 25 25 26 26 26 26 26 26 27 27 27 27 27 27 27 27 28 28 29 29 30 30 29 29 29 29
Wind_Direction
289 290 292 295 297 298 297 297 297 299 302 301 298 296 293 292 292 290 290 290 288 286 287 283 282 280 278 275 270 270 273 277 275 276 277 279 281 281
289 289 291 292 295 298 299 298 297 297 300 301 298 295 292 290 289 289 288 288 288 288 288 288 288 284 284 282 279 273 273 273 273 276 277 280 282 283
287 289 290 291 295 297 297 297 297 297 299 299 297 293 292 288 286 287 289 288 288 286 287 289 290 289 287 289 286 282 279 277 276 277 277 279 282 283
285 288 289 290 292 294 295 294 294 294 296 297 295 292 290 288 286 287 287 288 289 287 288 289 289 290 290 290 289 287 287 285 283 283 283 283 284 286
283 286 289 290 290 291 292 292 292 293 293 293 291 288 286 286 286 285 286 287 288 289 290 290 291 292 291 290 289 289 288 286 286 286 285 285 286 286
283 286 288 290 290 290 290 291 292 293 292 291 288 286 284 284 282 282 283 286 287 287 290 291 291 291 291 291 289 288 288 288 288 288 287 286 287 285
283 285 287 289 290 291 291 291 292 291 290 289 287 285 283 281 280 280 281 284 286 288 291 290 290 291 291 289 287 287 287 288 288 288 289 287 286 284
284 285 286 288 289 290 291 291 291 291 289 287 286 284 282 281 279 279 280 282 284 286 288 287 287 289 289 286 286 287 288 289 290 289 288 286 284 284
285 286 286 288 289 290 290 291 290 290 288 286 285 284 281 279 280 280 280 281 283 284 285 286 286 287 287 286 286 286 287 289 289 288 287 285 284 285
284 284 285 286 287 288 288 289 290 289 288 284 283 282 280 278 279 280 281 281 282 283 284 284 285 286 284 285 285 285 285 286 288 289 288 287 285 285
284 284 285 285 287 287 288 288 289 289 287 284 281 281 280 281 280 281 281 281 280 281 284 285 284 284 283 284 284 284 285 285 287 289 290 290 287 286
284 285 285 286 287 287 288 287 287 286 285 282 280 279 280 280 280 280 280 280 281 282 284 285 285 284 283 283 283 282 284 286 288 290 290 291 289 287
283 284 285 286 287 287 287 287 286 285 284 283 280 278 278 277 277 277 278 278 279 282 284 284 284 284 283 282 282 283 284 286 288 290 290 291 289 287
282 283 285 287 287 287 286 285 284 284 284 283 280 278 278 276 275 275 276 276 277 281 283 283 283 283 281 281 282 283 285 286 287 289 290 290 290 289
282 284 286 287 287 286 286 285 283 282 283 283 281 278 278 275 273 274 276 275 277 280 282 282 282 281 281 280 281 282 285 286 287 289 291 290 290 290
280 284 286 286 286 286 285 285 283 281 280 281 279 278 276 275 272 273 275 275 275 277 280 281 281 280 280 280 282 284 286 286 286 288 289 288 290 290
280 283 284 283 284 285 285 284 283 281 280 279 278 277 277 275 273 273 275 276 276 276 276 278 279 280 280 281 283 285 285 286 286 287 288 288 289 289
280 281 281 282 282 283 284 283 283 282 280 279 277 277 277 277 274 273 275 277 278 278 277 277 276 277 278 280 282 284 285 286 287 286 286 287 288 288
280 281 281 282 282 283 283 282 282 282 282 280 278 277 278 277 276 275 276 278 279 280 279 277 276 276 276 278 280 282 284 285 286 285 285 286 287 288
280 281 281 281 282 282 282 281 281 282 283 282 280 278 277 277 276 277 278 278 280 282 281 279 278 278 278 278 280 281 284 286 286 285 284 285 286 287
279 280 280 280 280 281 281 281 282 283 282 281 279 278 277 277 277 277 279 281 281 281 280 280 280 279 280 280 280 281 283 285 287 286 284 285 286 286
279 279 278 278 277 279 280 281 282 282 282 280 278 277 276 276 277 277 278 280 280 279 279 280 279 278 280 280 279 280 282 283 284 285 286 286 285 285
279 278 277 275 276 277 279 280 280 281 281 280 278 277 276 276 277 277 278 279 281 280 279 278 278 279 280 280 279 282 283 283 283 284 285 286 285 285
Height
5808 5807 5807 5806 5805 5804 5803 5802 5801 5800 5799 5797 5796 5794 5793 5792 5791 5790 5789 5789 5788 5787 5786 5786 5785 5784 5784 5783 5782 5782 5782 5782 5781 5781 5780 5780 5779 5778
5805 5804 5803 5803 5802 5801 5800 5798 5797 5796 5795 5793 5792 5790 5789 5788 5788 5787 5786 5785 5784 5784 5783 5782 5781 5780 5779 5779 5778 5777 5777 5777 5776 5776 5775 5775 5774 5773
5802 5801 5800 5799 5798 5797 5796 5794 5793 5792 5791 5789 5788 5786 5785 5785 5784 5783 5782 5782 5781 5780 5779 5778 5777 5776 5775 5774 5773 5772 5772 5771 5771 5771 5770 5769 5769 5768
5798 5797 5797 5796 5795 5794 5792 5791 5789 5788 5787 5785 5784 5783 5782 5781 5780 5779 5779 5778 5777 5776 5775 5774 5773 5772 5771 5770 5768 5767 5767 5766 5765 5764 5764 5764 5763 5761
5794 5793 5792 5791 5790 5789 5788 5786 5785 5784 5782 5781 5780 5778 5778 5777 5776 5775 5774 5774 5773 5772 5771 5769 5768 5767 5766 5765 5764 5763 5762 5761 5760 5759 5758 5757 5756 5755
5789 5788 5787 5786 5785 5784 5783 5781 5780 5779 5777 5776 5775 5774 5773 5772 5771 5771 5770 5769 5768 5767 5766 5765 5764 5762 5761 5760 5759 5758 5757 5756 5755 5754 5753 5751 5750 5749
5784 5783 5782 5781 5780 5779 5777 5776 5775 5773 5772 5770 5770 5769 5768 5767 5767 5766 5765 5764 5763 5762 5761 5760 5759 5758 5756 5755 5754 5753 5752 5750 5749 5748 5747 5745 5744 5743
5778 5777 5776 5775 5774 5773 5771 5770 5769 5767 5766 5765 5764 5763 5763 5762 5761 5760 5760 5759 5758 5758 5756 5755 5753 5752 5750 5749 5748 5747 5746 5745 5744 5742 5741 5740 5739 5738
5772 5771 5770 5769 5768 5767 5765 5764 5763 5761 5760 5759 5758 5758 5757 5756 5755 5755 5754 5753 5752 5751 5750 5749 5748 5747 5745 5743 5742 5741 5740 5739 5738 5736 5735 5734 5733 5732
5766 5765 5764 5763 5762 5760 5759 5758 5756 5755 5754 5753 5752 5751 5751 5749 5749 5748 5747 5746 5746 5744 5744 5743 5742 5741 5740 5738 5736 5735 5734 5733 5732 5730 5729 5728 5727 5726
5760 5759 5758 5757 5755 5754 5753 5752 5750 5749 5747 5746 5745 5745 5744 5743 5742 5742 5741 5740 5740 5739 5738 5737 5736 5735 5734 5732 5731 5729 5728 5727 5726 5725 5723 5722 5721 5719
5754 5753 5751 5750 5749 5747 5746 5745 5743 5742 5740 5739 5739 5738 5737 5736 5736 5735 5734 5734 5733 5732 5731 5730 5729 5728 5727 5726 5724 5723 5722 5721 5720 5718 5717 5716 5714 5713
5747 5746 5745 5743 5742 5741 5739 5738 5737 5735 5734 5733 5732 5731 5730 5729 5728 5728 5727 5727 5726 5725 5724 5723 5722 5721 5720 5719 5718 5716 5716 5715 5713 5712 5711 5709 5708 5707
5740 5739 5738 5736 5735 5734 5732 5731 5729 5728 5727 5726 5725 5724 5723 5722 5721 5720 5720 5719 5718 5718 5717 5716 5715 5714 5713 5712 5711 5710 5709 5708 5707 5706 5704 5703 5701 5700
5732 5731 5730 5729 5727 5726 5725 5723 5722 5721 5720 5718 5717 5716 5715 5714 5713 5713 5712 5711 5711 5710 5709 5708 5707 5706 5705 5705 5704 5703 5702 5701 5700 5699 5698 5696 5695 5693
5725 5724 5723 5721 5720 5719 5717 5716 5714 5713 5712 5710 5709 5708 5707 5706 5705 5705 5704 5704 5704 5703 5702 5701 5700 5699 5699 5698 5697 5696 5695 5694 5693 5692 5691 5690 5688 5686
5717 5716 5715 5714 5712 5711 5709 5707 5706 5704 5703 5702 5700 5700 5699 5698 5697 5696 5696 5696 5696 5696 5695 5694 5693 5692 5692 5691 5690 5689 5688 5687 5686 5685 5684 5683 5681 5679
5708 5707 5706 5705 5704 5702 5701 5699 5697 5696 5694 5693 5692 5691 5690 5689 5689 5688 5688 5688 5688 5687 5687 5686 5686 5685 5685 5684 5683 5682 5681 5680 5679 5677 5676 5675 5674 5672
5700 5699 5698 5697 5695 5694 5692 5691 5689 5688 5686 5685 5684 5683 5682 5681 5680 5680 5680 5680 5680 5679 5678 5678 5677 5677 5677 5677 5676 5674 5673 5672 5671 5670 5668 5667 5666 5664
5691 5690 5689 5687 5686 5685 5684 5682 5681 5679 5678 5677 5676 5675 5674 5674 5673 5673 5672 5672 5672 5671 5671 5670 5669 5669 5668 5668 5668 5667 5665 5664 5662 5661 5660 5659 5657 5656
5681 5680 5679 5679 5677 5676 5675 5674 5673 5671 5670 5668 5668 5667 5666 5666 5666 5666 5665 5665 5664 5663 5663 5662 5661 5661 5660 5659 5659 5658 5657 5655 5654 5652 5651 5650 5648 5647
5671 5671 5670 5669 5669 5668 5667 5666 5665 5663 5662 5661 5660 5659 5659 5658 5658 5658 5657 5657 5656 5655 5654 5653 5653 5652 5651 5650 5650 5649 5648 5647 5645 5643 5641 5640 5638 5637
5662 5661 5661 5661 5660 5659 5659 5658 5657 5655 5654 5653 5652 5651 5651 5651 5650 5650 5649 5649 5648 5647 5646 5645 5644 5643 5642 5641 5640 5640 5639 5637 5636 5634 5633 5630 5629 5628